GW1508 Weather Reports


time (UTC)temp
C
wind
direction
speed
KPH
gust
KPH
rain 1hr
cm
rain 24hr
cm
rain mn
cm
humidity
%
barometer
mb
20260509101404 8 161 0.0 6.4 0.00 0.03 0.03 88 1024.1
20260509094411 7 162 0.0 6.4 0.00 0.03 0.03 83 1024.2
20260509085838 8 189 0.0 4.8 0.00 0.03 0.03 82 1024.1
20260509082841 9 102 1.6 8.0 0.00 0.03 0.03 85 1024.0
20260509081335 8 137 1.6 9.7 0.00 0.03 0.03 88 1024.0
20260509074342 7 150 1.6 8.0 0.00 0.03 0.03 91 1024.4
20260509071344 7 259 0.0 3.2 0.00 0.03 0.03 92 1024.2
20260509064522 6 146 0.0 6.4 0.03 0.03 0.03 94 1024.1
20260509062825 3 110 0.0 1.6 0.03 0.03 0.03 93 1023.9
20260509055838 1 110 0.0 1.6 0.03 0.03 0.03 93 1024.0
20260509053021 -3 110 0.0 1.6 0.00 0.00 0.00 93 1024.6
20260509051344 -5 110 0.0 0.0 0.00 0.00 0.00 93 1024.5
20260509045837 -6 110 0.0 0.0 0.00 0.00 0.00 94 1024.1
20260509042842 -7 110 0.0 0.0 0.00 0.00 0.00 93 1024.0
20260509041333 -8 110 0.0 0.0 0.00 0.00 0.00 93 1023.8
20260509034344 -7 110 0.0 0.0 0.00 0.00 0.00 93 1023.8
20260509031349 -7 110 0.0 0.0 0.00 0.00 0.00 93 1023.6
20260509025843 -7 110 0.0 0.0 0.00 0.00 0.00 93 1023.6
20260509024338 -7 110 0.0 0.0 0.00 0.00 0.00 93 1023.7
20260509021339 -6 110 0.0 0.0 0.00 0.00 0.00 93 1023.7
20260509015833 -6 110 0.0 0.0 0.00 0.00 0.00 94 1023.5
20260509012850 -5 110 0.0 0.0 0.00 0.00 0.00 94 1023.3
20260509011337 -5 110 0.0 0.0 0.00 0.00 0.00 94 1023.3
20260509004344 -4 110 0.0 0.0 0.00 0.00 0.00 94 1023.2
20260509002835 -4 110 0.0 0.0 0.00 0.00 0.00 94 1023.3
20260508235841 -4 110 0.0 0.0 0.00 0.00 0.00 94 1023.0
20260508232841 -5 110 0.0 0.0 0.00 0.00 0.00 93 1023.0
20260508230326 -4 110 0.0 0.0 0.00 0.00 0.00 93 1023.0
20260508224344 -4 110 0.0 0.0 0.00 0.00 0.00 93 1022.8
20260508221518 -4 110 0.0 0.0 0.00 0.00 0.00 93 1022.9
20260508215856 -3 110 0.0 0.0 0.00 0.00 0.00 92 1022.9
20260508214337 -3 110 0.0 0.0 0.00 0.00 0.00 92 1022.7
20260508211330 -2 110 0.0 0.0 0.00 0.00 0.00 92 1022.5
20260508202848 0 110 0.0 0.0 0.00 0.00 0.00 91 1021.9
20260508195835 0 110 0.0 0.0 0.00 0.00 0.00 92 1021.6
20260508192844 1 110 0.0 0.0 0.00 0.00 0.00 92 1021.2
20260508191337 2 110 0.0 0.0 0.00 0.00 0.00 92 1020.9
20260508184347 3 110 0.0 0.0 0.00 0.00 0.00 92 1020.4
20260508182835 4 110 0.0 0.0 0.00 0.00 0.00 92 1020.3
20260508181333 5 110 0.0 1.6 0.00 0.00 0.00 91 1020.0
20260508174339 6 110 0.0 3.2 0.00 0.00 0.00 88 1019.9
20260508172830 6 110 0.0 3.2 0.00 0.00 0.00 91 1019.6
20260508165842 6 109 3.2 8.0 0.00 0.00 0.00 93 1019.7
20260508164335 7 125 3.2 8.0 0.00 0.00 0.00 93 1019.7
20260508161345 7 123 3.2 8.0 0.00 0.00 0.00 92 1019.3
20260508155838 7 109 3.2 11.3 0.00 0.00 0.00 92 1019.3
20260508154335 7 91 3.2 9.7 0.00 0.00 0.00 91 1019.2
20260508151347 7 92 4.8 9.7 0.00 0.00 0.00 90 1019.2
20260508145840 8 57 4.8 12.9 0.00 0.00 0.00 91 1019.4
20260508142843 8 292 1.6 9.7 0.00 0.05 0.00 91 1019.6
20260508141336 8 13 1.6 12.9 0.00 0.05 0.00 90 1019.6
20260508135834 8 93 4.8 11.3 0.00 0.05 0.00 90 1019.7
20260508132840 8 87 1.6 9.7 0.00 0.15 0.00 88 1020.1
20260508131336 8 239 3.2 9.7 0.00 0.15 0.00 88 1020.1
20260508124345 7 67 4.8 11.3 0.00 0.28 0.00 93 1020.2
20260508122842 7 39 1.6 11.3 0.00 0.28 0.00 92 1020.2
20260508121335 7 101 4.8 8.0 0.00 0.28 0.00 92 1020.4
20260508114344 7 115 3.2 8.0 0.00 0.46 0.00 91 1020.3
20260508112843 7 355 3.2 11.3 0.00 0.46 0.00 92 1020.3
20260508105848 6 82 4.8 12.9 0.00 0.46 0.00 93 1020.3
20260508104344 7 79 1.6 9.7 0.00 0.46 0.00 92 1020.3
20260508102832 7 182 3.2 12.9 0.00 0.46 0.00 92 1020.2